owner,sensor,date,latitude,longitude,mass_concentration_of_chlorophyll_in_sea_water,qcFlag 
LUMCON,ioos:station:LUMCON:102:1,2019-03-01T00:30:00Z,29.1870,-90.6093,11.1,1111122 
LUMCON,ioos:station:LUMCON:102:1,2019-03-01T00:45:00Z,29.1870,-90.6093,11.4,1111122 
LUMCON,ioos:station:LUMCON:102:1,2019-03-01T01:00:00Z,29.1870,-90.6093,9.92,1111122 
LUMCON,ioos:station:LUMCON:102:1,2019-03-01T01:15:00Z,29.1870,-90.6093,10.58,1111122 
LUMCON,ioos:station:LUMCON:102:1,2019-03-01T01:30:00Z,29.1870,-90.6093,9.53,1111122 
LUMCON,ioos:station:LUMCON:102:1,2019-03-01T01:45:00Z,29.1870,-90.6093,9.71,1111122 
LUMCON,ioos:station:LUMCON:102:1,2019-03-01T02:00:00Z,29.1870,-90.6093,8.92,1111122 
LUMCON,ioos:station:LUMCON:102:1,2019-03-01T02:15:00Z,29.1870,-90.6093,9.29,1111122 
LUMCON,ioos:station:LUMCON:102:1,2019-03-01T02:30:00Z,29.1870,-90.6093,9.06,1111122 
LUMCON,ioos:station:LUMCON:102:1,2019-03-01T02:45:00Z,29.1870,-90.6093,9.46,1111122 
LUMCON,ioos:station:LUMCON:102:1,2019-03-01T03:00:00Z,29.1870,-90.6093,8.88,1111122 
LUMCON,ioos:station:LUMCON:102:1,2019-03-01T03:15:00Z,29.1870,-90.6093,8.12,1111122 
LUMCON,ioos:station:LUMCON:102:1,2019-03-01T03:30:00Z,29.1870,-90.6093,8.09,1111122 
LUMCON,ioos:station:LUMCON:102:1,2019-03-01T03:45:00Z,29.1870,-90.6093,8.46,1111122 
LUMCON,ioos:station:LUMCON:102:1,2019-03-01T04:00:00Z,29.1870,-90.6093,8.39,1111122 
LUMCON,ioos:station:LUMCON:102:1,2019-03-01T04:15:00Z,29.1870,-90.6093,8.51,1111122 
LUMCON,ioos:station:LUMCON:102:1,2019-03-01T04:30:00Z,29.1870,-90.6093,8.56,1111122 
LUMCON,ioos:station:LUMCON:102:1,2019-03-01T04:45:00Z,29.1870,-90.6093,9.31,1111122 
LUMCON,ioos:station:LUMCON:102:1,2019-03-01T05:00:00Z,29.1870,-90.6093,8.56,1111122 
LUMCON,ioos:station:LUMCON:102:1,2019-03-01T05:15:00Z,29.1870,-90.6093,8.9,1111122 
LUMCON,ioos:station:LUMCON:102:1,2019-03-01T05:30:00Z,29.1870,-90.6093,10.31,1111122 
LUMCON,ioos:station:LUMCON:102:1,2019-03-01T05:45:00Z,29.1870,-90.6093,8.57,1111122 
LUMCON,ioos:station:LUMCON:102:1,2019-03-01T06:00:00Z,29.1870,-90.6093,9.01,1111122 
LUMCON,ioos:station:LUMCON:102:1,2019-03-01T06:15:00Z,29.1870,-90.6093,10.29,1111122 
LUMCON,ioos:station:LUMCON:102:1,2019-03-01T06:30:00Z,29.1870,-90.6093,10.2,1111122 
LUMCON,ioos:station:LUMCON:102:1,2019-03-01T06:45:00Z,29.1870,-90.6093,10.63,1111122 
LUMCON,ioos:station:LUMCON:102:1,2019-03-01T07:00:00Z,29.1870,-90.6093,11.65,1111122 
LUMCON,ioos:station:LUMCON:102:1,2019-03-01T07:15:00Z,29.1870,-90.6093,12.48,1111122 
LUMCON,ioos:station:LUMCON:102:1,2019-03-01T07:30:00Z,29.1870,-90.6093,14.05,1111122 
LUMCON,ioos:station:LUMCON:102:1,2019-03-01T07:45:00Z,29.1870,-90.6093,14.62,1111122 
LUMCON,ioos:station:LUMCON:102:1,2019-03-01T08:00:00Z,29.1870,-90.6093,14.82,1111122 
LUMCON,ioos:station:LUMCON:102:1,2019-03-01T08:15:00Z,29.1870,-90.6093,14.32,1111122 
LUMCON,ioos:station:LUMCON:102:1,2019-03-01T08:30:00Z,29.1870,-90.6093,14.81,1111122 
LUMCON,ioos:station:LUMCON:102:1,2019-03-01T08:45:00Z,29.1870,-90.6093,14.49,1111122 
LUMCON,ioos:station:LUMCON:102:1,2019-03-01T09:00:00Z,29.1870,-90.6093,15.09,1111122 
LUMCON,ioos:station:LUMCON:102:1,2019-03-01T09:15:00Z,29.1870,-90.6093,14.67,1111122 
LUMCON,ioos:station:LUMCON:102:1,2019-03-01T09:30:00Z,29.1870,-90.6093,13.59,1111122 
LUMCON,ioos:station:LUMCON:102:1,2019-03-01T09:45:00Z,29.1870,-90.6093,15.06,1111122 
LUMCON,ioos:station:LUMCON:102:1,2019-03-01T10:00:00Z,29.1870,-90.6093,15.0,1111122 
LUMCON,ioos:station:LUMCON:102:1,2019-03-01T10:15:00Z,29.1870,-90.6093,14.82,1111122 
LUMCON,ioos:station:LUMCON:102:1,2019-03-01T10:30:00Z,29.1870,-90.6093,14.16,1111122 
LUMCON,ioos:station:LUMCON:102:1,2019-03-01T10:45:00Z,29.1870,-90.6093,14.46,1111122 
LUMCON,ioos:station:LUMCON:102:1,2019-03-01T11:00:00Z,29.1870,-90.6093,14.79,1111122 
LUMCON,ioos:station:LUMCON:102:1,2019-03-01T11:15:00Z,29.1870,-90.6093,15.05,1111122 
LUMCON,ioos:station:LUMCON:102:1,2019-03-01T11:30:00Z,29.1870,-90.6093,15.03,1111122 
LUMCON,ioos:station:LUMCON:102:1,2019-03-01T11:45:00Z,29.1870,-90.6093,15.56,1111122 
LUMCON,ioos:station:LUMCON:102:1,2019-03-01T12:00:00Z,29.1870,-90.6093,16.0,1111122 
LUMCON,ioos:station:LUMCON:102:1,2019-03-01T12:15:00Z,29.1870,-90.6093,15.05,1111122 
LUMCON,ioos:station:LUMCON:102:1,2019-03-01T12:30:00Z,29.1870,-90.6093,15.56,1111122 
LUMCON,ioos:station:LUMCON:102:1,2019-03-01T12:45:00Z,29.1870,-90.6093,15.01,1111122 
LUMCON,ioos:station:LUMCON:102:1,2019-03-01T13:00:00Z,29.1870,-90.6093,14.43,1111122 
LUMCON,ioos:station:LUMCON:102:1,2019-03-01T13:15:00Z,29.1870,-90.6093,13.54,1111122 
LUMCON,ioos:station:LUMCON:102:1,2019-03-01T13:30:00Z,29.1870,-90.6093,13.74,1111122 
LUMCON,ioos:station:LUMCON:102:1,2019-03-01T13:45:00Z,29.1870,-90.6093,13.16,1111122 
LUMCON,ioos:station:LUMCON:102:1,2019-03-01T14:00:00Z,29.1870,-90.6093,12.44,1111122 
LUMCON,ioos:station:LUMCON:102:1,2019-03-01T14:15:00Z,29.1870,-90.6093,13.64,1111122 
LUMCON,ioos:station:LUMCON:102:1,2019-03-01T14:30:00Z,29.1870,-90.6093,12.6,1111122 
LUMCON,ioos:station:LUMCON:102:1,2019-03-01T14:45:00Z,29.1870,-90.6093,11.76,1111122 
LUMCON,ioos:station:LUMCON:102:1,2019-03-04T17:30:00Z,29.1870,-90.6093,20.69,1111122 
LUMCON,ioos:station:LUMCON:102:1,2019-03-04T17:45:00Z,29.1870,-90.6093,20.01,1111122 
LUMCON,ioos:station:LUMCON:102:1,2019-03-04T18:00:00Z,29.1870,-90.6093,18.31,1111122 
LUMCON,ioos:station:LUMCON:102:1,2019-03-04T18:15:00Z,29.1870,-90.6093,20.43,1111122 
LUMCON,ioos:station:LUMCON:102:1,2019-03-04T18:30:00Z,29.1870,-90.6093,20.13,1111122 
LUMCON,ioos:station:LUMCON:102:1,2019-03-04T18:45:00Z,29.1870,-90.6093,20.49,1111122 
LUMCON,ioos:station:LUMCON:102:1,2019-03-04T19:00:00Z,29.1870,-90.6093,20.61,1111122 
LUMCON,ioos:station:LUMCON:102:1,2019-03-04T19:15:00Z,29.1870,-90.6093,20.55,1111122 
LUMCON,ioos:station:LUMCON:102:1,2019-03-04T19:30:00Z,29.1870,-90.6093,19.56,1111122 
LUMCON,ioos:station:LUMCON:102:1,2019-03-04T19:45:00Z,29.1870,-90.6093,19.65,1111122 
LUMCON,ioos:station:LUMCON:102:1,2019-03-04T20:00:00Z,29.1870,-90.6093,19.41,1111122 
LUMCON,ioos:station:LUMCON:102:1,2019-03-04T20:15:00Z,29.1870,-90.6093,19.7,1111122 
LUMCON,ioos:station:LUMCON:102:1,2019-03-04T20:30:00Z,29.1870,-90.6093,20.11,1111122 
LUMCON,ioos:station:LUMCON:102:1,2019-03-04T20:45:00Z,29.1870,-90.6093,20.87,1111122 
LUMCON,ioos:station:LUMCON:102:1,2019-03-04T21:00:00Z,29.1870,-90.6093,20.71,1111122 
LUMCON,ioos:station:LUMCON:102:1,2019-03-04T21:15:00Z,29.1870,-90.6093,20.54,1111122 
LUMCON,ioos:station:LUMCON:102:1,2019-03-04T21:30:00Z,29.1870,-90.6093,22.0,1111122 
LUMCON,ioos:station:LUMCON:102:1,2019-03-04T21:45:00Z,29.1870,-90.6093,22.22,1111122 
LUMCON,ioos:station:LUMCON:102:1,2019-03-04T22:00:00Z,29.1870,-90.6093,24.08,1111122 
LUMCON,ioos:station:LUMCON:102:1,2019-03-04T22:15:00Z,29.1870,-90.6093,22.5,1111122 
LUMCON,ioos:station:LUMCON:102:1,2019-03-04T22:30:00Z,29.1870,-90.6093,24.16,1111122 
LUMCON,ioos:station:LUMCON:102:1,2019-03-04T22:45:00Z,29.1870,-90.6093,25.67,1111122 
LUMCON,ioos:station:LUMCON:102:1,2019-03-04T23:00:00Z,29.1870,-90.6093,25.68,1111122 
LUMCON,ioos:station:LUMCON:102:1,2019-03-04T23:15:00Z,29.1870,-90.6093,25.59,1111122 
LUMCON,ioos:station:LUMCON:102:1,2019-03-04T23:30:00Z,29.1870,-90.6093,27.2,1111122 
LUMCON,ioos:station:LUMCON:102:1,2019-03-04T23:45:00Z,29.1870,-90.6093,25.6,1111122 
LUMCON,ioos:station:LUMCON:102:1,2019-03-05T00:00:00Z,29.1870,-90.6093,25.25,1111122 
LUMCON,ioos:station:LUMCON:102:1,2019-03-05T00:15:00Z,29.1870,-90.6093,25.19,1111122 
LUMCON,ioos:station:LUMCON:102:1,2019-03-05T00:30:00Z,29.1870,-90.6093,24.91,1111122 
LUMCON,ioos:station:LUMCON:102:1,2019-03-05T00:45:00Z,29.1870,-90.6093,25.1,1111122 
LUMCON,ioos:station:LUMCON:102:1,2019-03-05T01:00:00Z,29.1870,-90.6093,25.84,1111122 
LUMCON,ioos:station:LUMCON:102:1,2019-03-05T01:15:00Z,29.1870,-90.6093,25.11,1111122 
LUMCON,ioos:station:LUMCON:102:1,2019-03-05T01:30:00Z,29.1870,-90.6093,26.85,1111122 
LUMCON,ioos:station:LUMCON:102:1,2019-03-05T01:45:00Z,29.1870,-90.6093,25.73,1111122 
LUMCON,ioos:station:LUMCON:102:1,2019-03-05T02:00:00Z,29.1870,-90.6093,25.35,1111122 
LUMCON,ioos:station:LUMCON:102:1,2019-03-05T02:15:00Z,29.1870,-90.6093,25.21,1111122 
LUMCON,ioos:station:LUMCON:102:1,2019-03-05T02:30:00Z,29.1870,-90.6093,25.76,1111122 
LUMCON,ioos:station:LUMCON:102:1,2019-03-05T02:45:00Z,29.1870,-90.6093,25.43,1111122 
LUMCON,ioos:station:LUMCON:102:1,2019-03-05T03:00:00Z,29.1870,-90.6093,26.62,1111122 
LUMCON,ioos:station:LUMCON:102:1,2019-03-05T03:15:00Z,29.1870,-90.6093,26.08,1111122 
LUMCON,ioos:station:LUMCON:102:1,2019-03-05T03:30:00Z,29.1870,-90.6093,26.51,1111122 
LUMCON,ioos:station:LUMCON:102:1,2019-03-05T03:45:00Z,29.1870,-90.6093,27.73,1111122 
LUMCON,ioos:station:LUMCON:102:1,2019-03-05T04:00:00Z,29.1870,-90.6093,26.16,1111122 
LUMCON,ioos:station:LUMCON:102:1,2019-03-05T04:15:00Z,29.1870,-90.6093,25.99,1111122 
LUMCON,ioos:station:LUMCON:102:1,2019-03-05T04:30:00Z,29.1870,-90.6093,21.48,1111122 
LUMCON,ioos:station:LUMCON:102:1,2019-03-05T04:45:00Z,29.1870,-90.6093,21.84,1111122 
LUMCON,ioos:station:LUMCON:102:1,2019-03-05T05:00:00Z,29.1870,-90.6093,23.2,1111122 
LUMCON,ioos:station:LUMCON:102:1,2019-03-05T05:15:00Z,29.1870,-90.6093,23.08,1111122 
LUMCON,ioos:station:LUMCON:102:1,2019-03-05T05:30:00Z,29.1870,-90.6093,22.64,1111122 
LUMCON,ioos:station:LUMCON:102:1,2019-03-05T05:45:00Z,29.1870,-90.6093,23.92,1111122 
LUMCON,ioos:station:LUMCON:102:1,2019-03-05T06:00:00Z,29.1870,-90.6093,24.8,1111122 
LUMCON,ioos:station:LUMCON:102:1,2019-03-05T06:15:00Z,29.1870,-90.6093,23.0,1111122 
LUMCON,ioos:station:LUMCON:102:1,2019-03-05T06:30:00Z,29.1870,-90.6093,25.49,1111122 
LUMCON,ioos:station:LUMCON:102:1,2019-03-05T06:45:00Z,29.1870,-90.6093,23.98,1111122 
LUMCON,ioos:station:LUMCON:102:1,2019-03-05T07:00:00Z,29.1870,-90.6093,21.27,1111122 
LUMCON,ioos:station:LUMCON:102:1,2019-03-05T07:15:00Z,29.1870,-90.6093,24.08,1111122 
LUMCON,ioos:station:LUMCON:102:1,2019-03-05T07:30:00Z,29.1870,-90.6093,22.66,1111122 
LUMCON,ioos:station:LUMCON:102:1,2019-03-05T07:45:00Z,29.1870,-90.6093,22.68,1111122 
LUMCON,ioos:station:LUMCON:102:1,2019-03-05T08:00:00Z,29.1870,-90.6093,21.96,1111122 
LUMCON,ioos:station:LUMCON:102:1,2019-03-05T08:15:00Z,29.1870,-90.6093,22.26,1111122 
LUMCON,ioos:station:LUMCON:102:1,2019-03-05T08:30:00Z,29.1870,-90.6093,21.64,1111122 
LUMCON,ioos:station:LUMCON:102:1,2019-03-05T08:45:00Z,29.1870,-90.6093,21.96,1111122 
LUMCON,ioos:station:LUMCON:102:1,2019-03-05T09:00:00Z,29.1870,-90.6093,22.95,1111122 
LUMCON,ioos:station:LUMCON:102:1,2019-03-05T09:15:00Z,29.1870,-90.6093,22.13,1111122 
LUMCON,ioos:station:LUMCON:102:1,2019-03-05T09:30:00Z,29.1870,-90.6093,23.21,1111122 
LUMCON,ioos:station:LUMCON:102:1,2019-03-05T09:45:00Z,29.1870,-90.6093,23.14,1111122 
LUMCON,ioos:station:LUMCON:102:1,2019-03-05T10:00:00Z,29.1870,-90.6093,21.81,1111122 
LUMCON,ioos:station:LUMCON:102:1,2019-03-05T10:15:00Z,29.1870,-90.6093,22.09,1111122 
LUMCON,ioos:station:LUMCON:102:1,2019-03-05T10:30:00Z,29.1870,-90.6093,22.28,1111122 
LUMCON,ioos:station:LUMCON:102:1,2019-03-05T10:45:00Z,29.1870,-90.6093,23.29,1111122 
LUMCON,ioos:station:LUMCON:102:1,2019-03-05T11:00:00Z,29.1870,-90.6093,24.8,1111122 
LUMCON,ioos:station:LUMCON:102:1,2019-03-05T11:15:00Z,29.1870,-90.6093,24.68,1111122 
LUMCON,ioos:station:LUMCON:102:1,2019-03-05T11:30:00Z,29.1870,-90.6093,25.04,1111122 
LUMCON,ioos:station:LUMCON:102:1,2019-03-05T11:45:00Z,29.1870,-90.6093,25.91,1111122 
LUMCON,ioos:station:LUMCON:102:1,2019-03-05T12:00:00Z,29.1870,-90.6093,28.31,1111122 
LUMCON,ioos:station:LUMCON:102:1,2019-03-05T12:15:00Z,29.1870,-90.6093,25.83,1111122 
LUMCON,ioos:station:LUMCON:102:1,2019-03-05T12:30:00Z,29.1870,-90.6093,25.36,1111122 
LUMCON,ioos:station:LUMCON:102:1,2019-03-05T12:45:00Z,29.1870,-90.6093,25.44,1111122 
LUMCON,ioos:station:LUMCON:102:1,2019-03-05T13:00:00Z,29.1870,-90.6093,26.24,1111122 
LUMCON,ioos:station:LUMCON:102:1,2019-03-05T13:15:00Z,29.1870,-90.6093,25.06,1111122 
LUMCON,ioos:station:LUMCON:102:1,2019-03-05T13:30:00Z,29.1870,-90.6093,28.35,1111122 
LUMCON,ioos:station:LUMCON:102:1,2019-03-05T13:45:00Z,29.1870,-90.6093,29.83,1111122 
LUMCON,ioos:station:LUMCON:102:1,2019-03-05T14:00:00Z,29.1870,-90.6093,28.99,1111122 
LUMCON,ioos:station:LUMCON:102:1,2019-03-05T14:15:00Z,29.1870,-90.6093,27.64,1111122 
LUMCON,ioos:station:LUMCON:102:1,2019-03-05T14:30:00Z,29.1870,-90.6093,26.53,1111122 
LUMCON,ioos:station:LUMCON:102:1,2019-03-05T14:45:00Z,29.1870,-90.6093,27.41,1111122 
LUMCON,ioos:station:LUMCON:102:1,2019-03-05T15:00:00Z,29.1870,-90.6093,26.51,1111122 
LUMCON,ioos:station:LUMCON:102:1,2019-03-05T15:15:00Z,29.1870,-90.6093,28.63,1111122 
LUMCON,ioos:station:LUMCON:102:1,2019-03-05T15:30:00Z,29.1870,-90.6093,27.13,1111122 
LUMCON,ioos:station:LUMCON:102:1,2019-03-05T15:45:00Z,29.1870,-90.6093,27.02,1111122 
LUMCON,ioos:station:LUMCON:102:1,2019-03-05T16:00:00Z,29.1870,-90.6093,25.79,1111122 
LUMCON,ioos:station:LUMCON:102:1,2019-03-05T16:15:00Z,29.1870,-90.6093,27.99,1111122 
LUMCON,ioos:station:LUMCON:102:1,2019-03-05T16:30:00Z,29.1870,-90.6093,25.37,1111122 
LUMCON,ioos:station:LUMCON:102:1,2019-03-05T16:45:00Z,29.1870,-90.6093,24.45,1111122 
LUMCON,ioos:station:LUMCON:102:1,2019-03-05T17:00:00Z,29.1870,-90.6093,22.93,1111122 
LUMCON,ioos:station:LUMCON:102:1,2019-03-05T17:15:00Z,29.1870,-90.6093,24.78,1111122 
LUMCON,ioos:station:LUMCON:102:1,2019-03-05T17:30:00Z,29.1870,-90.6093,23.42,1111122 
LUMCON,ioos:station:LUMCON:102:1,2019-03-05T17:45:00Z,29.1870,-90.6093,22.99,1111122 
LUMCON,ioos:station:LUMCON:102:1,2019-03-05T18:00:00Z,29.1870,-90.6093,22.87,1111122 
LUMCON,ioos:station:LUMCON:102:1,2019-03-05T18:15:00Z,29.1870,-90.6093,22.19,1111122 
LUMCON,ioos:station:LUMCON:102:1,2019-03-05T18:30:00Z,29.1870,-90.6093,21.92,1111122 
LUMCON,ioos:station:LUMCON:102:1,2019-03-05T18:45:00Z,29.1870,-90.6093,22.12,1111122 
LUMCON,ioos:station:LUMCON:102:1,2019-03-05T19:00:00Z,29.1870,-90.6093,21.51,1111122 
LUMCON,ioos:station:LUMCON:102:1,2019-03-05T19:15:00Z,29.1870,-90.6093,22.34,1111122 
LUMCON,ioos:station:LUMCON:102:1,2019-03-05T19:30:00Z,29.1870,-90.6093,21.93,1111122 
LUMCON,ioos:station:LUMCON:102:1,2019-03-05T19:45:00Z,29.1870,-90.6093,22.83,1111122 
LUMCON,ioos:station:LUMCON:102:1,2019-03-05T20:00:00Z,29.1870,-90.6093,20.95,1111122 
LUMCON,ioos:station:LUMCON:102:1,2019-03-05T20:15:00Z,29.1870,-90.6093,21.39,1111122 
LUMCON,ioos:station:LUMCON:102:1,2019-03-05T20:30:00Z,29.1870,-90.6093,21.26,1111122 
LUMCON,ioos:station:LUMCON:102:1,2019-03-05T20:45:00Z,29.1870,-90.6093,20.89,1111122 
LUMCON,ioos:station:LUMCON:102:1,2019-03-05T21:00:00Z,29.1870,-90.6093,20.43,1111122 
LUMCON,ioos:station:LUMCON:102:1,2019-03-05T21:15:00Z,29.1870,-90.6093,20.87,1111122 
LUMCON,ioos:station:LUMCON:102:1,2019-03-05T21:30:00Z,29.1870,-90.6093,20.8,1111122 
LUMCON,ioos:station:LUMCON:102:1,2019-03-05T21:45:00Z,29.1870,-90.6093,21.17,1111122 
LUMCON,ioos:station:LUMCON:102:1,2019-03-05T22:00:00Z,29.1870,-90.6093,21.79,1111122 
LUMCON,ioos:station:LUMCON:102:1,2019-03-05T22:15:00Z,29.1870,-90.6093,22.49,1111122 
LUMCON,ioos:station:LUMCON:102:1,2019-03-05T22:30:00Z,29.1870,-90.6093,22.86,1111122 
LUMCON,ioos:station:LUMCON:102:1,2019-03-05T22:45:00Z,29.1870,-90.6093,23.56,1111122 
LUMCON,ioos:station:LUMCON:102:1,2019-03-05T23:00:00Z,29.1870,-90.6093,23.11,1111122 
LUMCON,ioos:station:LUMCON:102:1,2019-03-05T23:15:00Z,29.1870,-90.6093,23.5,1111122 
LUMCON,ioos:station:LUMCON:102:1,2019-03-05T23:30:00Z,29.1870,-90.6093,23.96,1111122 
LUMCON,ioos:station:LUMCON:102:1,2019-03-05T23:45:00Z,29.1870,-90.6093,24.2,1111122 
LUMCON,ioos:station:LUMCON:102:1,2019-03-06T00:00:00Z,29.1870,-90.6093,25.45,1111122 
LUMCON,ioos:station:LUMCON:102:1,2019-03-06T00:15:00Z,29.1870,-90.6093,23.58,1111122 
LUMCON,ioos:station:LUMCON:102:1,2019-03-06T00:30:00Z,29.1870,-90.6093,22.09,1111122 
LUMCON,ioos:station:LUMCON:102:1,2019-03-06T00:45:00Z,29.1870,-90.6093,23.36,1111122 
LUMCON,ioos:station:LUMCON:102:1,2019-03-06T01:00:00Z,29.1870,-90.6093,22.55,1111122 
LUMCON,ioos:station:LUMCON:102:1,2019-03-06T01:15:00Z,29.1870,-90.6093,22.9,1111122 
LUMCON,ioos:station:LUMCON:102:1,2019-03-06T01:30:00Z,29.1870,-90.6093,23.22,1111122 
LUMCON,ioos:station:LUMCON:102:1,2019-03-06T01:45:00Z,29.1870,-90.6093,22.39,1111122 
LUMCON,ioos:station:LUMCON:102:1,2019-03-06T02:00:00Z,29.1870,-90.6093,22.61,1111122 
LUMCON,ioos:station:LUMCON:102:1,2019-03-06T02:15:00Z,29.1870,-90.6093,24.24,1111122 
LUMCON,ioos:station:LUMCON:102:1,2019-03-06T02:30:00Z,29.1870,-90.6093,24.38,1111122 
LUMCON,ioos:station:LUMCON:102:1,2019-03-06T02:45:00Z,29.1870,-90.6093,25.39,1111122 
LUMCON,ioos:station:LUMCON:102:1,2019-03-06T03:00:00Z,29.1870,-90.6093,25.32,1111122 
LUMCON,ioos:station:LUMCON:102:1,2019-03-06T03:15:00Z,29.1870,-90.6093,24.68,1111122 
LUMCON,ioos:station:LUMCON:102:1,2019-03-06T03:30:00Z,29.1870,-90.6093,23.74,1111122 
LUMCON,ioos:station:LUMCON:102:1,2019-03-06T03:45:00Z,29.1870,-90.6093,23.09,1111122 
LUMCON,ioos:station:LUMCON:102:1,2019-03-06T04:00:00Z,29.1870,-90.6093,22.99,1111122 
LUMCON,ioos:station:LUMCON:102:1,2019-03-06T04:15:00Z,29.1870,-90.6093,22.27,1111122 
LUMCON,ioos:station:LUMCON:102:1,2019-03-06T04:30:00Z,29.1870,-90.6093,22.09,1111122 
LUMCON,ioos:station:LUMCON:102:1,2019-03-06T04:45:00Z,29.1870,-90.6093,23.21,1111122 
LUMCON,ioos:station:LUMCON:102:1,2019-03-06T05:00:00Z,29.1870,-90.6093,24.19,1111122 
LUMCON,ioos:station:LUMCON:102:1,2019-03-06T05:15:00Z,29.1870,-90.6093,22.39,1111122 
LUMCON,ioos:station:LUMCON:102:1,2019-03-06T05:30:00Z,29.1870,-90.6093,21.75,1111122 
LUMCON,ioos:station:LUMCON:102:1,2019-03-06T05:45:00Z,29.1870,-90.6093,22.82,1111122 
LUMCON,ioos:station:LUMCON:102:1,2019-03-06T06:00:00Z,29.1870,-90.6093,22.06,1111122 
LUMCON,ioos:station:LUMCON:102:1,2019-03-06T06:15:00Z,29.1870,-90.6093,22.45,1111122 
LUMCON,ioos:station:LUMCON:102:1,2019-03-06T06:30:00Z,29.1870,-90.6093,22.4,1111122 
LUMCON,ioos:station:LUMCON:102:1,2019-03-06T06:45:00Z,29.1870,-90.6093,21.02,1111122 
LUMCON,ioos:station:LUMCON:102:1,2019-03-06T07:00:00Z,29.1870,-90.6093,22.79,1111122 
LUMCON,ioos:station:LUMCON:102:1,2019-03-06T07:15:00Z,29.1870,-90.6093,20.64,1111122 
LUMCON,ioos:station:LUMCON:102:1,2019-03-06T07:30:00Z,29.1870,-90.6093,21.27,1111122 
LUMCON,ioos:station:LUMCON:102:1,2019-03-06T07:45:00Z,29.1870,-90.6093,22.62,1111122 
LUMCON,ioos:station:LUMCON:102:1,2019-03-06T08:00:00Z,29.1870,-90.6093,21.85,1111122 
LUMCON,ioos:station:LUMCON:102:1,2019-03-06T08:15:00Z,29.1870,-90.6093,21.69,1111122 
LUMCON,ioos:station:LUMCON:102:1,2019-03-06T08:30:00Z,29.1870,-90.6093,22.99,1111122 
LUMCON,ioos:station:LUMCON:102:1,2019-03-06T08:45:00Z,29.1870,-90.6093,22.94,1111122 
LUMCON,ioos:station:LUMCON:102:1,2019-03-06T09:00:00Z,29.1870,-90.6093,22.46,1111122 
LUMCON,ioos:station:LUMCON:102:1,2019-03-06T09:15:00Z,29.1870,-90.6093,22.19,1111122 
LUMCON,ioos:station:LUMCON:102:1,2019-03-06T09:30:00Z,29.1870,-90.6093,22.38,1111122 
LUMCON,ioos:station:LUMCON:102:1,2019-03-06T09:45:00Z,29.1870,-90.6093,21.63,1111122 
LUMCON,ioos:station:LUMCON:102:1,2019-03-06T10:00:00Z,29.1870,-90.6093,21.89,1111122 
LUMCON,ioos:station:LUMCON:102:1,2019-03-06T10:15:00Z,29.1870,-90.6093,22.91,1111122 
LUMCON,ioos:station:LUMCON:102:1,2019-03-06T10:30:00Z,29.1870,-90.6093,23.18,1111122 
LUMCON,ioos:station:LUMCON:102:1,2019-03-06T10:45:00Z,29.1870,-90.6093,21.81,1111122 
LUMCON,ioos:station:LUMCON:102:1,2019-03-06T11:00:00Z,29.1870,-90.6093,22.05,1111122 
LUMCON,ioos:station:LUMCON:102:1,2019-03-06T11:15:00Z,29.1870,-90.6093,18.48,1111122 
LUMCON,ioos:station:LUMCON:102:1,2019-03-06T11:30:00Z,29.1870,-90.6093,21.2,1111122 
LUMCON,ioos:station:LUMCON:102:1,2019-03-06T11:45:00Z,29.1870,-90.6093,22.52,1111122 
LUMCON,ioos:station:LUMCON:102:1,2019-03-06T12:00:00Z,29.1870,-90.6093,24.03,1111122 
LUMCON,ioos:station:LUMCON:102:1,2019-03-06T12:15:00Z,29.1870,-90.6093,26.5,1111122 
LUMCON,ioos:station:LUMCON:102:1,2019-03-06T12:30:00Z,29.1870,-90.6093,27.88,1111122 
LUMCON,ioos:station:LUMCON:102:1,2019-03-06T12:45:00Z,29.1870,-90.6093,25.52,1111122 
LUMCON,ioos:station:LUMCON:102:1,2019-03-06T13:00:00Z,29.1870,-90.6093,24.76,1111122 
LUMCON,ioos:station:LUMCON:102:1,2019-03-06T13:15:00Z,29.1870,-90.6093,24.26,1111122 
LUMCON,ioos:station:LUMCON:102:1,2019-03-06T13:30:00Z,29.1870,-90.6093,24.18,1111122 
LUMCON,ioos:station:LUMCON:102:1,2019-03-06T13:45:00Z,29.1870,-90.6093,24.06,1111122 
LUMCON,ioos:station:LUMCON:102:1,2019-03-06T14:00:00Z,29.1870,-90.6093,22.21,1111122 
LUMCON,ioos:station:LUMCON:102:1,2019-03-06T14:15:00Z,29.1870,-90.6093,25.95,1111122 
LUMCON,ioos:station:LUMCON:102:1,2019-03-06T14:30:00Z,29.1870,-90.6093,24.31,1111122 
LUMCON,ioos:station:LUMCON:102:1,2019-03-06T14:45:00Z,29.1870,-90.6093,24.49,1111122 
LUMCON,ioos:station:LUMCON:102:1,2019-03-06T15:00:00Z,29.1870,-90.6093,22.94,1111122 
LUMCON,ioos:station:LUMCON:102:1,2019-03-06T15:15:00Z,29.1870,-90.6093,21.9,1111122 
LUMCON,ioos:station:LUMCON:102:1,2019-03-06T15:30:00Z,29.1870,-90.6093,22.12,1111122 
LUMCON,ioos:station:LUMCON:102:1,2019-03-06T15:45:00Z,29.1870,-90.6093,21.48,1111122 
LUMCON,ioos:station:LUMCON:102:1,2019-03-06T16:00:00Z,29.1870,-90.6093,23.16,1111122 
LUMCON,ioos:station:LUMCON:102:1,2019-03-06T16:15:00Z,29.1870,-90.6093,24.48,1111122 
LUMCON,ioos:station:LUMCON:102:1,2019-03-06T16:30:00Z,29.1870,-90.6093,26.16,1111122 
LUMCON,ioos:station:LUMCON:102:1,2019-03-06T16:45:00Z,29.1870,-90.6093,27.16,1111122 
LUMCON,ioos:station:LUMCON:102:1,2019-03-06T17:00:00Z,29.1870,-90.6093,26.51,1111122 
LUMCON,ioos:station:LUMCON:102:1,2019-03-06T17:15:00Z,29.1870,-90.6093,27.89,1111122 
LUMCON,ioos:station:LUMCON:102:1,2019-03-06T17:30:00Z,29.1870,-90.6093,29.53,1111122 
LUMCON,ioos:station:LUMCON:102:1,2019-03-06T17:45:00Z,29.1870,-90.6093,25.75,1111122 
LUMCON,ioos:station:LUMCON:102:1,2019-03-06T18:00:00Z,29.1870,-90.6093,24.63,1111122 
LUMCON,ioos:station:LUMCON:102:1,2019-03-06T18:15:00Z,29.1870,-90.6093,21.81,1111122 
LUMCON,ioos:station:LUMCON:102:1,2019-03-06T18:30:00Z,29.1870,-90.6093,23.31,1111122 
LUMCON,ioos:station:LUMCON:102:1,2019-03-06T18:45:00Z,29.1870,-90.6093,22.89,1111122 
LUMCON,ioos:station:LUMCON:102:1,2019-03-06T19:00:00Z,29.1870,-90.6093,22.41,1111122 
LUMCON,ioos:station:LUMCON:102:1,2019-03-06T19:15:00Z,29.1870,-90.6093,23.21,1111122 
LUMCON,ioos:station:LUMCON:102:1,2019-03-06T19:30:00Z,29.1870,-90.6093,22.32,1111122 
LUMCON,ioos:station:LUMCON:102:1,2019-03-06T19:45:00Z,29.1870,-90.6093,21.24,1111122 
LUMCON,ioos:station:LUMCON:102:1,2019-03-06T20:00:00Z,29.1870,-90.6093,22.41,1111122 
LUMCON,ioos:station:LUMCON:102:1,2019-03-06T20:15:00Z,29.1870,-90.6093,21.81,1111122 
LUMCON,ioos:station:LUMCON:102:1,2019-03-06T20:30:00Z,29.1870,-90.6093,23.43,1111122 
LUMCON,ioos:station:LUMCON:102:1,2019-03-06T20:45:00Z,29.1870,-90.6093,23.06,1111122 
LUMCON,ioos:station:LUMCON:102:1,2019-03-06T21:00:00Z,29.1870,-90.6093,22.85,1111122 
LUMCON,ioos:station:LUMCON:102:1,2019-03-06T21:15:00Z,29.1870,-90.6093,23.26,1111122 
LUMCON,ioos:station:LUMCON:102:1,2019-03-06T21:30:00Z,29.1870,-90.6093,23.29,1111122 
LUMCON,ioos:station:LUMCON:102:1,2019-03-06T21:45:00Z,29.1870,-90.6093,22.45,1111122 
LUMCON,ioos:station:LUMCON:102:1,2019-03-06T22:00:00Z,29.1870,-90.6093,22.55,1111122 
LUMCON,ioos:station:LUMCON:102:1,2019-03-06T22:15:00Z,29.1870,-90.6093,22.57,1111122 
LUMCON,ioos:station:LUMCON:102:1,2019-03-06T22:30:00Z,29.1870,-90.6093,22.07,1111122 
LUMCON,ioos:station:LUMCON:102:1,2019-03-06T22:45:00Z,29.1870,-90.6093,21.39,1111122 
LUMCON,ioos:station:LUMCON:102:1,2019-03-06T23:00:00Z,29.1870,-90.6093,22.47,1111122 
LUMCON,ioos:station:LUMCON:102:1,2019-03-06T23:15:00Z,29.1870,-90.6093,22.08,1111122 
LUMCON,ioos:station:LUMCON:102:1,2019-03-06T23:30:00Z,29.1870,-90.6093,22.03,1111122 
LUMCON,ioos:station:LUMCON:102:1,2019-03-06T23:45:00Z,29.1870,-90.6093,21.28,1111122 
LUMCON,ioos:station:LUMCON:102:1,2019-03-07T00:00:00Z,29.1870,-90.6093,22.97,1111122 
LUMCON,ioos:station:LUMCON:102:1,2019-03-07T00:15:00Z,29.1870,-90.6093,22.3,1111122 